| time (UTC) | temp F | wind direction | speed knots | gust knots | rain 1hr in | rain 24hr in | rain mn in | humidity % | barometer mb |
| 20260504230625 | 56 | 247 | 0.0 | 1.7 | 0.00 | 0.00 | 0.00 | 66 | 1008.6 |
| 20260504225627 | 57 | 230 | 0.9 | 2.6 | 0.00 | 0.00 | 0.00 | 64 | 1008.5 |
| 20260504224724 | 57 | 247 | 2.6 | 5.2 | 0.00 | 0.00 | 0.00 | 63 | 1008.3 |
| 20260504221824 | 58 | 270 | 2.6 | 6.1 | 0.00 | 0.00 | 0.00 | 61 | 1008.4 |
| 20260504220828 | 58 | 258 | 0.9 | 5.2 | 0.00 | 0.00 | 0.00 | 61 | 1008.2 |
| 20260504215924 | 58 | 255 | 2.6 | 5.2 | 0.00 | 0.00 | 0.00 | 61 | 1007.9 |
| 20260504214925 | 58 | 253 | 3.5 | 7.0 | 0.00 | 0.00 | 0.00 | 61 | 1007.9 |
| 20260504213928 | 58 | 234 | 0.9 | 1.7 | 0.00 | 0.00 | 0.00 | 61 | 1007.9 |
| 20260504212926 | 58 | 261 | 1.7 | 4.3 | 0.00 | 0.00 | 0.00 | 62 | 1007.8 |
| 20260504211927 | 59 | 260 | 0.0 | 2.6 | 0.00 | 0.00 | 0.00 | 61 | 1007.8 |
| 20260504210927 | 59 | 232 | 0.9 | 4.3 | 0.00 | 0.00 | 0.00 | 61 | 1007.8 |
| 20260504205924 | 59 | 258 | 1.7 | 4.3 | 0.00 | 0.00 | 0.00 | 61 | 1007.8 |
| 20260504204927 | 59 | 215 | 3.5 | 7.0 | 0.00 | 0.00 | 0.00 | 61 | 1007.8 |
| 20260504202124 | 58 | 215 | 2.6 | 7.8 | 0.00 | 0.00 | 0.00 | 63 | 1007.6 |
| 20260504201126 | 57 | 219 | 2.6 | 5.2 | 0.00 | 0.01 | 0.00 | 64 | 1007.7 |
| 20260504195324 | 54 | 225 | 1.7 | 4.3 | 0.00 | 0.01 | 0.00 | 67 | 1007.7 |
| 20260504194328 | 54 | 229 | 4.3 | 6.1 | 0.00 | 0.02 | 0.00 | 68 | 1007.8 |
| 20260504193327 | 53 | 238 | 3.5 | 6.1 | 0.00 | 0.02 | 0.00 | 69 | 1007.9 |
| 20260504192326 | 53 | 229 | 2.6 | 5.2 | 0.00 | 0.02 | 0.00 | 71 | 1007.9 |
| 20260504191327 | 52 | 237 | 1.7 | 3.5 | 0.00 | 0.02 | 0.00 | 73 | 1008.1 |
| 20260504190325 | 52 | 225 | 3.5 | 7.0 | 0.00 | 0.03 | 0.00 | 74 | 1008.3 |
| 20260504190228 | 51 | 203 | 0.9 | 3.5 | 0.00 | 0.03 | 0.00 | 75 | 1008.3 |
| 20260504184324 | 52 | 225 | 2.6 | 6.1 | 0.00 | 0.04 | 0.00 | 74 | 1008.7 |
| 20260504183326 | 52 | 247 | 0.0 | 1.7 | 0.00 | 0.05 | 0.00 | 73 | 1008.8 |
| 20260504182424 | 52 | 274 | 0.9 | 2.6 | 0.00 | 0.06 | 0.00 | 71 | 1008.7 |
| 20260504180426 | 51 | 250 | 0.9 | 2.6 | 0.00 | 0.08 | 0.00 | 69 | 1008.5 |
| 20260504175425 | 50 | 225 | 2.6 | 6.1 | 0.00 | 0.09 | 0.00 | 70 | 1008.3 |
| 20260504174427 | 50 | 233 | 0.9 | 3.5 | 0.00 | 0.11 | 0.00 | 71 | 1008.3 |
| 20260504173524 | 50 | 234 | 1.7 | 7.0 | 0.00 | 0.12 | 0.00 | 71 | 1008.3 |
| 20260504172525 | 50 | 238 | 3.5 | 7.8 | 0.00 | 0.13 | 0.00 | 70 | 1008.0 |
| 20260504171525 | 52 | 235 | 4.3 | 8.7 | 0.00 | 0.14 | 0.00 | 65 | 1008.1 |
| 20260504170625 | 55 | 233 | 1.7 | 6.1 | 0.00 | 0.14 | 0.00 | 63 | 1007.9 |
| 20260504150725 | 53 | 227 | 3.5 | 6.1 | 0.00 | 0.30 | 0.00 | 56 | 1009.0 |
| 20260504110126 | 41 | 233 | 2.6 | 6.1 | 0.00 | 0.65 | 0.00 | 72 | 1009.8 |
| 20260504100326 | 38 | 270 | 0.9 | 2.6 | 0.00 | 0.74 | 0.00 | 79 | 1009.2 |
| 20260504081525 | 38 | 270 | 2.6 | 4.3 | 0.00 | 0.83 | 0.00 | 76 | 1008.5 |
| 20260504080527 | 38 | 261 | 2.6 | 5.2 | 0.00 | 0.84 | 0.00 | 76 | 1008.3 |
| 20260504045624 | 39 | 185 | 0.9 | 2.6 | 0.00 | 1.00 | 0.00 | 75 | 1007.3 |
| 20260504042724 | 39 | 268 | 2.6 | 8.7 | 0.00 | 1.00 | 0.00 | 75 | 1007.2 |
| 20260504041824 | 39 | 270 | 0.9 | 2.6 | 0.00 | 1.00 | 0.00 | 75 | 1007.2 |
| 20260504040824 | 39 | 253 | 0.9 | 3.5 | 0.00 | 1.00 | 0.00 | 75 | 1007.0 |
| 20260504035833 | 39 | 282 | 2.6 | 5.2 | 0.00 | 1.00 | 1.00 | 75 | 1007.0 |
| 20260504034932 | 39 | 270 | 0.0 | 0.9 | 0.00 | 1.00 | 1.00 | 74 | 1006.8 |
| 20260504033936 | 40 | 312 | 0.9 | 4.3 | 0.00 | 1.00 | 1.00 | 73 | 1006.8 |
| 20260504032935 | 40 | 270 | 1.7 | 3.5 | 0.00 | 1.00 | 1.00 | 74 | 1006.8 |
| 20260504031933 | 40 | 336 | 1.7 | 2.6 | 0.00 | 1.00 | 1.00 | 73 | 1006.7 |
| 20260504030835 | 40 | 251 | 2.6 | 6.1 | 0.00 | 1.00 | 1.00 | 74 | 1006.5 |
| 20260504025935 | 40 | 333 | 1.7 | 2.6 | 0.00 | 1.00 | 1.00 | 75 | 1006.4 |
| 20260504024035 | 41 | 262 | 1.7 | 5.2 | 0.00 | 1.00 | 1.00 | 75 | 1006.3 |
| 20260504022036 | 41 | 239 | 4.3 | 7.8 | 0.00 | 1.00 | 1.00 | 75 | 1006.2 |
| 20260504021135 | 42 | 287 | 1.7 | 5.2 | 0.00 | 1.00 | 1.00 | 73 | 1006.3 |
| 20260504020134 | 43 | 271 | 4.3 | 9.6 | 0.00 | 1.00 | 1.00 | 72 | 1006.0 |
| 20260504015136 | 43 | 235 | 2.6 | 5.2 | 0.00 | 1.00 | 1.00 | 75 | 1005.9 |
| 20260504013233 | 42 | 286 | 1.7 | 6.1 | 0.00 | 1.00 | 1.00 | 84 | 1005.8 |
| 20260504012235 | 42 | 271 | 1.7 | 3.5 | 0.00 | 1.00 | 1.00 | 88 | 1005.7 |
| 20260504011235 | 42 | 247 | 1.7 | 4.3 | 0.00 | 1.00 | 1.00 | 91 | 1005.5 |
| 20260504010333 | 42 | 224 | 0.9 | 2.6 | 0.00 | 1.00 | 1.00 | 91 | 1005.5 |
| 20260504005335 | 42 | 192 | 1.7 | 3.5 | 0.00 | 1.00 | 1.00 | 90 | 1005.3 |
| 20260504004334 | 43 | 315 | 0.9 | 1.7 | 0.00 | 1.00 | 1.00 | 91 | 1005.2 |
| 20260504003334 | 43 | 315 | 0.0 | 0.0 | 0.00 | 1.00 | 1.00 | 90 | 1004.9 |
| 20260504002334 | 43 | 315 | 0.0 | 0.9 | 0.00 | 1.00 | 1.00 | 89 | 1004.9 |
| 20260504001333 | 43 | 180 | 0.0 | 0.9 | 0.00 | 1.00 | 1.00 | 89 | 1004.8 |
| 20260504000336 | 43 | 180 | 0.9 | 0.9 | 0.00 | 1.00 | 1.00 | 89 | 1004.6 |
| 20260503235334 | 43 | 304 | 2.6 | 7.0 | 0.00 | 1.00 | 1.00 | 89 | 1004.6 |
| 20260503234336 | 43 | 316 | 0.0 | 3.5 | 0.00 | 1.00 | 1.00 | 87 | 1004.2 |
| 20260503233336 | 43 | 271 | 0.9 | 2.6 | 0.00 | 1.00 | 1.00 | 88 | 1004.1 |
| 20260503232433 | 43 | 302 | 3.5 | 6.1 | 0.00 | 1.00 | 1.00 | 88 | 1004.0 |